Flag for Germany Weather past 2 weeks in Vechta, Lower Saxony, Germany

Now
70 °F

Partly sunny.


Feels Like: 70 °F
Forecast: 57 / 84 °F
Wind: 10 mph from South

Location: Bremen Airport

Current Time: Aug 29, 2015 at 2:37:49 PM

Latest Report: Aug 29, 2015 at 2:20 PM


Visibility: N/A

Pressure: 30.21 "Hg

Humidity: 53%

Dew point: 52 °F

Location of VechtaLocation

Historic Weather in Vechta — Graph

°F

Vechta temperature yesterday

Maximum temperature yesterday: 68 °F (at 3:50 PM)
Minimum temperature yesterday: 55 °F (at 1:50 AM)
Average temperature yesterday: 60 °F

Past Weeks' High & Low Weather Summary

 TemperatureHumidityPressure
High81 °F (Aug 14, 5:50 PM)100% (Aug 15, 3:20 AM)30.27 "Hg (Aug 15, 3:20 AM)
Low50 °F (Aug 29, 3:20 AM)30% (Aug 22, 1:50 PM)29.56 "Hg (Aug 24, 5:50 PM)
Average65 °F78%29.94 "Hg
* Reported Aug 14 1:20 PM — Aug 29 1:20 PM, Vechta, Weather by CustomWeather, © 2015

Note: Actual official high and low records may vary slightly from our data, if they occured in-between our weather recording intervals... More about our weather records

Advertising

Vechta weather history for previous 24 hours

 ConditionsComfort  
Time TempWeatherWind HumidityBarometerVisibility
1:20 PM
Sat, Aug 29
70 °FScattered clouds.10 mph53%30.21 "HgN/A
12:50 PM68 °FScattered clouds.8 mph56%30.21 "HgN/A
11:50 AM70 °FScattered clouds.9 mph57%30.21 "HgN/A
11:20 AM68 °FScattered clouds.9 mph60%30.24 "HgN/A
10:50 AM68 °FSunny.8 mph60%30.24 "Hg10 mi
9:50 AM64 °FPassing clouds.3 mph78%30.24 "HgN/A
9:20 AM59 °FScattered clouds.3 mph94%30.24 "Hg6 mi
8:50 AM57 °FScattered clouds.2 mph94%30.24 "Hg5 mi
7:50 AM54 °FClear.1 mph100%30.21 "Hg4 mi
7:20 AM52 °FFog.1 mph100%30.21 "Hg4 mi
6:50 AM50 °FFog.2 mph94%30.21 "Hg1 mi
6:20 AM52 °FFog.2 mph94%30.18 "Hg1 mi
5:50 AM52 °FLight fog.2 mph100%30.18 "Hg4 mi
5:20 AM50 °FLight fog.5 mph100%30.18 "Hg4 mi
4:50 AM50 °FFog.No wind94%30.18 "Hg1 mi
4:20 AM50 °FLight fog.2 mph100%30.18 "Hg4 mi
3:50 AM52 °FLight fog.2 mph100%30.18 "Hg5 mi
3:20 AM50 °FFog.No wind100%30.18 "Hg1 mi
2:50 AM52 °FFog.2 mph94%30.18 "Hg1 mi
2:20 AM52 °FFog.2 mph100%30.18 "HgN/A
1:50 AM54 °FFog.No wind94%30.15 "HgN/A
1:20 AM54 °FFog.No wind94%30.15 "HgN/A
12:50 AM55 °FFog.No wind94%30.15 "HgN/A
12:20 AM55 °FFog.1 mph88%30.15 "HgN/A
11:50 PM
Fri, Aug 28
55 °FFog.2 mph88%30.15 "HgN/A
11:20 PM55 °FClear.2 mph88%30.15 "Hg10 mi
10:50 PM55 °FClear.5 mph88%30.12 "Hg10 mi
10:20 PM57 °FPassing clouds.6 mph82%30.12 "HgN/A
9:50 PM59 °FPassing clouds.6 mph82%30.12 "HgN/A
9:20 PM61 °FScattered clouds.6 mph77%30.09 "HgN/A
8:50 PM63 °FBroken clouds.6 mph77%30.09 "HgN/A
8:20 PM63 °FPartly sunny.7 mph77%30.09 "HgN/A
7:50 PM63 °FPartly sunny.6 mph77%30.07 "HgN/A
7:20 PM64 °FPartly sunny.8 mph73%30.07 "HgN/A
6:50 PM66 °FScattered clouds.8 mph68%30.07 "HgN/A
6:20 PM68 °FPassing clouds.10 mph64%30.07 "HgN/A
5:50 PM66 °FPassing clouds.8 mph64%30.07 "HgN/A
5:20 PM68 °FPassing clouds.8 mph60%30.07 "HgN/A
4:50 PM68 °FPassing clouds.10 mph60%30.07 "HgN/A
4:20 PM68 °FPassing clouds.10 mph60%30.07 "HgN/A
3:50 PM68 °FPassing clouds.13 mph60%30.07 "HgN/A
3:20 PM66 °FScattered clouds.9 mph64%30.07 "HgN/A
2:50 PM66 °FScattered clouds.10 mph64%30.04 "HgN/A
2:20 PM64 °FScattered clouds.7 mph78%30.04 "HgN/A
Weather by CustomWeather, © 2015

See weather overviewHow to use our weather pages